DW0414 Weather Reports


Display with metric or nautical units.
time (UTC)temp
F
wind
direction
speed
MPH
gust
MPH
rain 1hr
in
rain 24hr
in
rain mn
in
humidity
%
barometer
mb
20260502151545 45 55 1.0 2.0 0.00 0.00 0.00 48 1021.5
20260502123058 23 0 0.0 1.0 0.00 0.00 0.00 84 1021.6
20260502121550 23 326 1.0 2.0 0.00 0.00 0.00 85 1021.5
20260502114549 23 0 0.0 1.0 0.00 0.00 0.00 84 1021.5
20260502113053 23 0 0.0 1.0 0.00 0.00 0.00 84 1021.4
20260502111549 23 0 0.0 0.0 0.00 0.00 0.00 84 1021.4
20260502110047 24 0 0.0 1.0 0.00 0.00 0.00 82 1021.6
20260502104549 24 0 0.0 1.0 0.00 0.00 0.00 81 1021.6
20260502103049 24 0 0.0 0.0 0.00 0.00 0.00 81 1021.4
20260502101551 24 0 0.0 0.0 0.00 0.00 0.00 81 1021.5
20260502070055 27 0 0.0 1.0 0.00 0.00 0.00 74 1021.0
20260502064549 28 0 0.0 1.0 0.00 0.00 0.00 73 1020.9
20260502063045 29 0 0.0 1.0 0.00 0.00 0.00 73 1020.8
20260502061548 30 82 0.0 2.0 0.00 0.00 0.00 70 1020.6
20260502060051 30 78 0.0 1.0 0.00 0.00 0.00 70 1020.7
20260502054555 29 0 0.0 1.0 0.00 0.00 0.00 69 1020.6
20260502053049 30 0 0.0 0.0 0.00 0.00 0.00 68 1020.6
20260502051546 31 116 0.0 1.0 0.00 0.00 0.00 66 1020.4
20260502050049 32 117 1.0 2.0 0.00 0.00 0.00 67 1020.5
20260502044551 33 45 0.0 2.0 0.00 0.00 0.00 63 1020.5
20260502043055 34 331 0.0 1.0 0.00 0.00 0.00 60 1020.3
20260502041551 35 29 0.0 1.0 0.00 0.00 0.00 59 1020.2
20260502040047 36 0 0.0 2.0 0.00 0.00 0.00 60 1019.9
20260502034549 38 25 0.0 3.0 0.00 0.00 0.00 54 1019.8
20260502033047 39 269 1.0 2.0 0.00 0.00 0.00 53 1019.5
20260502031551 40 11 0.0 2.0 0.00 0.00 0.00 50 1019.3
20260502030046 41 0 0.0 1.0 0.00 0.00 0.00 48 1019.0
20260502024549 44 0 1.0 2.0 0.00 0.00 0.00 44 1018.6
20260502023048 46 0 0.0 0.0 0.00 0.00 0.00 39 1018.4
20260502021551 51 0 0.0 1.0 0.00 0.00 0.00 34 1018.4
20260502020050 56 281 0.0 3.0 0.00 0.00 0.00 29 1018.4
20260502014556 57 244 2.0 6.0 0.00 0.00 0.00 25 1018.1
20260502013055 58 261 2.0 5.0 0.00 0.00 0.00 24 1018.1
20260502011553 58 286 2.0 6.0 0.00 0.00 0.00 24 1018.1
20260502010050 58 274 4.0 7.0 0.00 0.00 0.00 25 1018.1
20260502004554 59 0 2.0 5.0 0.00 0.00 0.00 22 1018.0
20260502003048 59 139 4.0 6.0 0.00 0.00 0.00 22 1018.1
20260502001553 58 0 3.0 11.0 0.00 0.00 0.00 23 1018.1
20260501234556 59 293 5.0 9.0 0.00 0.00 0.00 24 1018.1
20260501233102 58 294 7.0 12.0 0.00 0.00 0.00 23 1018.1
20260501231557 58 309 5.0 11.0 0.00 0.00 0.00 23 1018.1
20260501230100 57 301 4.0 9.0 0.00 0.00 0.00 22 1018.3
20260501224554 58 299 3.0 11.0 0.00 0.00 0.00 23 1018.4
20260501223052 57 359 3.0 8.0 0.00 0.00 0.00 23 1018.4
20260501221551 57 251 4.0 13.0 0.00 0.00 0.00 24 1018.5
20260501220055 57 282 5.0 11.0 0.00 0.00 0.00 24 1018.7
20260501214548 57 285 2.0 11.0 0.00 0.00 0.00 26 1018.8
20260501213047 56 245 6.0 12.0 0.00 0.00 0.00 23 1019.2
20260501211549 56 296 6.0 12.0 0.00 0.00 0.00 26 1019.2
20260501210050 55 264 6.0 13.0 0.00 0.00 0.00 25 1019.3
20260501204545 55 289 8.0 12.0 0.00 0.00 0.00 26 1019.4
20260501203048 54 275 6.0 12.0 0.00 0.00 0.00 27 1019.4
20260501201556 54 283 6.0 13.0 0.00 0.00 0.00 29 1019.3
20260501200047 54 27 2.0 9.0 0.00 0.00 0.00 29 1019.5
20260501194547 53 253 3.0 11.0 0.00 0.00 0.00 31 1019.6
20260501193049 53 291 5.0 12.0 0.00 0.00 0.00 35 1019.7
20260501191550 53 141 2.0 8.0 0.00 0.00 0.00 31 1019.7
20260501190049 52 231 1.0 8.0 0.00 0.00 0.00 35 1019.8
20260501184547 52 229 4.0 9.0 0.00 0.00 0.00 33 1020.1
20260501183052 51 231 4.0 10.0 0.00 0.00 0.00 35 1020.2
20260501181552 50 126 3.0 9.0 0.00 0.00 0.00 36 1020.5
20260501180052 49 233 3.0 8.0 0.00 0.00 0.00 38 1020.5
20260501174551 48 51 1.0 7.0 0.00 0.00 0.00 38 1020.9
20260501173050 48 281 5.0 7.0 0.00 0.00 0.00 38 1021.0
20260501171545 47 260 6.0 9.0 0.00 0.00 0.00 37 1021.0
20260501170056 46 285 3.0 6.0 0.00 0.00 0.00 41 1021.1
20260501164547 45 240 2.0 6.0 0.00 0.00 0.00 43 1021.1
20260501163045 44 102 2.0 6.0 0.00 0.00 0.00 44 1021.4
20260501161547 43 85 3.0 5.0 0.00 0.00 0.00 45 1021.3
20260501160044 42 264 2.0 6.0 0.00 0.00 0.00 47 1021.3
20260501154557 41 0 1.0 4.0 0.00 0.00 0.00 49 1021.4
20260501153053 41 0 0.0 3.0 0.00 0.00 0.00 52 1021.6